Погода Нарьян-Мар

Погода Нарьян-Мар : погода сейчас, прогноз погоды и архив. Всё, что Вы хотите узнать о погоде Нарьян-Мар!

Хотите узнать прогноз погоды Нарьян-Мар? Тогда Вам сюда: Погода Нарьян-Мар

Поиск расширенной информации на нашем сайте:

Другие новости

Новости СМИ2

Главная страница сайта

Новости сайта

03.07.2017

Напоминаем, что на нашем специализированном сайте Метеоцентр.Азия вы можете получить высокодетализированные автоматические прогнозы погоды по пунктам России, СНГ и мира в авиационном формате (включающие направление и скорость ветра, видимость, явления погоды, количество и форму облачности, нижнюю и верхнюю границу облачности).


Погода Нарьян-Мар - сегодня

Время (UTC), дата Ветер
(°,м/с) 
Видим.   Явления Облачность Т
(°С)
Тd
(°С)
f(%) Тe
(°С)
Pmin
(гПа)
dP
(гПа)
Po
(мм)
O2
(г/м3)
Тmin Tmax R s Состояние
почвы
00 19.06.18 060 (СВ) 20000 м    1/0 верхняя 
[Ci fib]
+8.3 +2.1 65 +9  1014.9  -0.8  760  297           
03 19.06.18 350 (С) 20000 м    1/0 верхняя 
[Ci fib]
+11.4 +4 60 +12  1013.9  -0.9  759  293  +7.2        сухая 
06 19.06.18 020 (С) 20000 м    1/0 верхняя 
[Ci fib]
+15.7 +5.9 52 +16  1012.3  -1.6  758  288           
09 19.06.18 020 (С) 20000 м    3/1 600 м верхняя 
[Cu hum|Ci fib]
+17.8 +4.7 42 +18  1010.8  -1.6  757  286           
12 19.06.18 040 (СВ) 20000 м    1/0 верхняя 
[Ci fib]
+18.4 +2.5 35 +19  1009  -1.7  756  285           
15 19.06.18 050 (СВ) 20000 м    1/0 верхняя 
[Ci fib]
+17 +6.2 49 +17  1006.9  -2.1  754  285    +18.5       
18 19.06.18 080 (В) 20000 м    1/0 верхняя 
[Ci fib]
+14.3 +6.8 61 +14  1005.7  -1.2  753  287           
21 19.06.18 090 (В) 20000 м    1/0 2000 м верхняя 
[Ci fib]
+9.7 +6.1 78 +9  1004.3  -1.4  752  292           
00 20.06.18 080 (В) 20000 м    3/0 верхняя 
[Ci fib]
+8 +5.5 84 +7  1002.8  -1.5  751  293           
03 20.06.18 080 (В) 20000 м    10/10 210 м 
[St]
+6.5 +4.3 86 +6  1000.9  -1.9  750  294  +6.5        сухая 
06 20.06.18 080 (В) 20000 м    4/0 верхняя 
[Ci fib]
+11.2 +5 66 +10  998.6  -2.3  748  289  +6.3         
09 20.06.18 070 (В) 5{11}  20000 м    3/1 600 м верхняя 
[Cu hum|Ci fib]
+14.4 +6.4 59 +14  996.3  -2.3  746  285           
12 20.06.18 050 (СВ) 5{10}  20000 м    8/6 700 м средняя 
[Sc|Ac trans]
+13.5 +5.8 60 +13  994.4  -2  745  285           
15 20.06.18 050 (СВ) 4{10}  20000 м    9/6 750 м средняя 
[Sc|Ac trans]
+10.6 +4.7 67 +10  993.4  -1  744  288    +14.7       
18 20.06.18 060 (СВ) 20000 м    9/9 700 м 
[Sc]
+7.3 +3.4 76 +6  992.4  -1  743  291           
21 20.06.18 050 (СВ) 20000 м    9/9 500 м 
[Sc]
+5.8 +2.8 81 +5  991.4  -1  743  293           
03 21.06.18 060 (СВ) 20000 м    9/9 270 м 
[St]
+7.5 +5 84 +7  991.3  743  290  +5        сухая 
06 21.06.18 020 (С) 20000 м    8/0 верхняя 
[Cs]
+13.9 +6.8 62 +14  991.5  0.2  743  284           
09 21.06.18 020 (С) 20000 м    1/1 600 м 
[Cu hum]
+19.7 +8.5 48 +20  992  0.5  743  278           
12 21.06.18 010 (С) 20000 м    8/1 600 м верхняя 
[Cu hum|Cs]
+20.1 +9.5 50 +21  993.3  1.3  744  278           
18 21.06.18 010 (С) 20000 м    4/0 верхняя 
[Ci]
+13.6 +9.1 74 +14  997  1.8  747  285           
21 21.06.18 360 (С) 0200 м  туман  ?/?  
+8 +7.1 94 +7  998.4  1.4  748  292           
03 22.06.18 340 (С) 20000 м    10/10 210 м 
[St]
+6.6 +5 90 +6  1001.6  1.4  750  294  +6.4        сухая 
09 22.06.18 320 (СЗ) 20000 м    10/10 <0100 м 
[St]
+8.7 +5.3 79 +8  1005.1  2.1  753  293           
12 22.06.18 350 (С) 20000 м    10/10 500 м 
[Sc]
+9.7 +5 72 +9  1006.4  1.4  754  293           
Время (UTC), дата Ветер
(°,м/с) 
Видим.   Явления Облачность Т
(°С)
Тd
(°С)
f(%) Тe
(°С)
Pmin
(гПа)
dP
(гПа)
Po
(мм)
O2
(г/м3)
Тmin Tmax R s Состояние
почвы

Для получения пояснительной информации подведите курсор к названию столбца.

ПОГОДА Нарьян-Мар - архив

Всё, что Вы хотите узнать о погоде Нарьян-Мар - удобно и подробно!

Выберите нужную дату (начиная с 1 января 2015* года) и нажмите кнопку "Найти".
Будут отображены архивные сводки погоды по пункту Нарьян-Мар, начиная с указанной даты.


Отображать данные в формате CSV (для использования в таблицах Excel)


Внимание! Наш архив погоды предназначен исключительно для личного некоммерческого использования в познавательных целях. Если Вам необходимы официальные справки о состоянии погоды (для производственных, юридических, коммерческих и т.п. целей), обращайтесь в органы Росгидромета.

*Примечание: данная дата относится к архиву по метеостанциям СССР (Россия, СНГ, Балтия).
Архив по метеостанциям Зарубежной Европы и Азии (кроме Китая) хранится 10 дней, по другим регионам земного шара (Китай, Африка, Америка, Австралия, Океания) - 1 день.

Нарьян-Мар - район местоположения метеостанции


Название, широта, долгота, высота метеостанции:
Нарьян-Мар 67.6°ш. 53°д. 12 м над ур. моря [Российская Федерация]

Дополнительная информация

В oтличие oт бoльшинства пoгoдных сайтoв мы публикуем пoдрoбную метеoинфoрмацию в детальнoм прoфессиoнальнoм фoрмате.

Характеристики температуры и влажнoсти вoздуха измеряются на высoте 2 м в тени вдали oт зданий и деревьев.
Скoрoсть ветра измеряется на высoте 10 м (на урoвне рoста челoвека скoрoсть ветра ниже в 1.5-2 раза). Если метеoстанция нахoдится в гoрoде или в лесу, тo скoрoсть ветра занижена на 2-4 м/с пo сравнению с oткрытым местoм. Скoрoсть ветра над акватoриями крупных рек и oзёр, а также на вершинах хoлмoв на 2-5 м/с выше, чем в oбычных услoвиях.
Атмoсфернoе давление в разных тoчках местнoсти мoжет значительнo oтличаться oт давления на метеoстанции, в зависимoсти oт услoвий рельефа (при пoдъёме на 10 м давление пoнижается примернo на 1 мм рт.ст.).